sat.trackr.live / text

‹ back to catalog

TURKSAT 3A

NORAD 33056 · 2008-030B

PAYLOAD ACTIVE UNKNOWN

§ Identity

Operator
Country
TURK
Launch date
2008-06-12
Launch site
FRGUI
Launch vehicle
Mass (kg)
RCS (m²)
24.79

Purposes: comms

External: N2YO · Heavens-Above · Gunter

§ Orbital elements

Epoch: 2026-09-19T22:18:13.139136Z

Period
1,436.12 min
Inclination
0.0439°
Eccentricity
0.0004387
Mean motion
1.00270491 rev/d
Perigee alt
35,768.5 km
Apogee alt
35,805.5 km
Semi-major
42,165.1 km
B*
0.0000e+0
RAAN
80.9990°
Arg perigee
77.3203°
Mean anomaly
217.0800°
Rev number
5,330

§ Raw data

TURKSAT 3A1 33056U 08030B   26262.92931874  .00000142  00000+0  00000+0 0  99942 33056   0.0439  80.9990 0004387  77.3203 217.0800  1.00270491 53307

JSON: /api/v1/satellites/33056 · /tle

For live sub-satellite position, see the globe view (requires WebGL).

§ Visibility from observer

Set your observer location to see the next 7 days of passes ≥ 10°. The values pass through the URL so the page stays shareable.

No JS? Fill the form by hand. The geolocation button needs JavaScript.